DW3128 Weather Reports


time (UTC)temp
F
wind
direction
speed
knots
gust
knots
rain 1hr
in
rain 24hr
in
rain mn
in
humidity
%
barometer
mb
20260906224305 100 85 6.1 11.3 0.00 0.00 0.00 29 1008.7
20260906223805 100 89 3.5 7.8 0.00 0.00 0.00 30 1008.7
20260906223304 100 221 3.5 13.9 0.00 0.00 0.00 29 1008.8
20260906222306 99 151 5.2 11.3 0.00 0.00 0.00 31 1008.8
20260906221805 99 142 1.7 7.8 0.00 0.00 0.00 30 1008.8
20260906221304 99 78 5.2 13.0 0.00 0.00 0.00 29 1008.9
20260906220804 99 95 6.1 11.3 0.00 0.00 0.00 30 1008.9
20260906220304 99 90 2.6 7.0 0.00 0.00 0.00 29 1009.0
20260906215805 99 109 5.2 10.4 0.00 0.00 0.00 30 1009.1
20260906214304 100 145 1.7 5.2 0.00 0.00 0.00 30 1009.1
20260906213806 100 113 5.2 8.7 0.00 0.00 0.00 28 1009.2
20260906213305 100 133 5.2 11.3 0.00 0.00 0.00 29 1009.4
20260906212306 99 142 5.2 13.0 0.00 0.00 0.00 33 1009.4
20260906211805 98 149 6.1 10.4 0.00 0.00 0.00 32 1009.4
20260906211304 98 151 4.3 8.7 0.00 0.00 0.00 32 1009.5
20260906210305 99 87 5.2 13.9 0.00 0.00 0.00 30 1009.8
20260906205804 98 116 5.2 10.4 0.00 0.00 0.00 31 1009.7
20260906205306 98 77 6.1 10.4 0.00 0.00 0.00 31 1009.8
20260906204804 98 1 5.2 10.4 0.00 0.00 0.00 32 1009.8
20260906204304 98 123 5.2 10.4 0.00 0.00 0.00 33 1009.8
20260906203805 98 148 7.0 10.4 0.00 0.00 0.00 32 1009.9
20260906203305 99 107 5.2 10.4 0.00 0.00 0.00 30 1010.0
20260906202805 99 106 4.3 13.0 0.00 0.00 0.00 31 1010.0
20260906202306 99 116 2.6 7.0 0.00 0.00 0.00 32 1010.0
20260906201805 99 103 5.2 11.3 0.00 0.00 0.00 32 1010.0
20260906201305 99 152 5.2 10.4 0.00 0.00 0.00 31 1010.1
20260906200804 99 141 7.0 13.0 0.00 0.00 0.00 33 1010.2
20260906200304 98 109 4.3 10.4 0.00 0.00 0.00 34 1010.2
20260906195804 98 97 10.4 13.0 0.00 0.00 0.00 34 1010.3
20260906195306 98 64 2.6 10.4 0.00 0.00 0.00 32 1010.2
20260906194804 98 72 6.1 13.0 0.00 0.00 0.00 32 1010.3
20260906194305 99 82 12.2 17.4 0.00 0.00 0.00 31 1010.3
20260906193804 99 148 7.0 10.4 0.00 0.00 0.00 34 1010.3
20260906193304 98 106 6.1 10.4 0.00 0.00 0.00 33 1010.4
20260906192805 98 90 5.2 13.0 0.00 0.00 0.00 32 1010.5
20260906192306 98 107 3.5 10.4 0.00 0.00 0.00 33 1010.5
20260906191804 98 91 5.2 10.4 0.00 0.00 0.00 33 1010.7
20260906190304 97 117 6.1 13.0 0.00 0.00 0.00 34 1010.8
20260906185804 97 87 8.7 13.9 0.00 0.00 0.00 34 1010.9
20260906185306 97 69 5.2 10.4 0.00 0.00 0.00 33 1010.9
20260906184304 96 77 2.6 8.7 0.00 0.00 0.00 36 1010.9
20260906183805 96 21 4.3 8.7 0.00 0.00 0.00 36 1011.1
20260906183304 97 139 7.0 13.0 0.00 0.00 0.00 35 1011.1
20260906182805 96 68 4.3 10.4 0.00 0.00 0.00 35 1011.1
20260906181804 95 94 5.2 8.7 0.00 0.00 0.00 39 1011.3
20260906181305 95 119 3.5 10.4 0.00 0.00 0.00 37 1011.4
20260906180804 95 103 3.5 10.4 0.00 0.00 0.00 37 1011.5
20260906180304 96 128 6.1 10.4 0.00 0.00 0.00 38 1011.6
20260906175804 96 104 6.1 7.8 0.00 0.00 0.00 38 1011.6
20260906175306 96 55 5.2 11.3 0.00 0.00 0.00 37 1011.7
20260906174804 95 115 3.5 13.9 0.00 0.00 0.00 37 1011.7
20260906174304 95 155 7.8 13.9 0.00 0.00 0.00 39 1011.9
20260906173305 95 118 4.3 7.0 0.00 0.00 0.00 39 1012.0
20260906172306 96 130 7.0 10.4 0.00 0.00 0.00 37 1012.1
20260906171305 95 166 5.2 8.7 0.00 0.00 0.00 38 1012.3
20260906170804 95 111 6.1 11.3 0.00 0.00 0.00 38 1012.5
20260906165804 95 127 4.3 6.1 0.00 0.00 0.00 42 1012.5
20260906165306 95 127 3.5 7.0 0.00 0.00 0.00 40 1012.6
20260906164804 95 155 3.5 10.4 0.00 0.00 0.00 39 1012.6
20260906163804 94 156 6.1 10.4 0.00 0.00 0.00 40 1012.7
20260906163304 94 136 3.5 7.8 0.00 0.00 0.00 42 1012.6
20260906162804 94 122 5.2 10.4 0.00 0.00 0.00 42 1012.7
20260906161804 93 322 0.9 5.2 0.00 0.00 0.00 40 1012.6
20260906161304 93 76 5.2 10.4 0.00 0.00 0.00 42 1012.6
20260906160804 93 94 5.2 7.8 0.00 0.00 0.00 44 1012.6
20260906160304 92 22 4.3 7.8 0.00 0.00 0.00 45 1012.5
20260906155804 92 185 1.7 4.3 0.00 0.00 0.00 45 1012.6
20260906155306 92 152 2.6 5.2 0.00 0.00 0.00 47 1012.5
20260906154805 91 43 4.3 7.8 0.00 0.00 0.00 46 1012.6
20260906154304 92 349 4.3 5.2 0.00 0.00 0.00 46 1012.6
20260906153804 91 90 0.9 4.3 0.00 0.00 0.00 49 1012.6
20260906153305 91 94 1.7 2.6 0.00 0.00 0.00 51 1012.6
20260906152803 90 152 1.7 5.2 0.00 0.00 0.00 52 1012.5
20260906151804 89 159 2.6 5.2 0.00 0.00 0.00 55 1012.5
20260906151304 89 132 2.6 4.3 0.00 0.00 0.00 55 1012.5
20260906150804 88 159 1.7 5.2 0.00 0.00 0.00 56 1012.5
20260906150304 87 196 2.6 2.6 0.00 0.00 0.00 57 1012.4
20260906145804 87 181 0.9 5.2 0.00 0.00 0.00 58 1012.3
20260906145306 86 158 3.5 5.2 0.00 0.00 0.00 60 1012.3
20260906143804 83 84 2.6 5.2 0.00 0.00 0.00 64 1012.3
20260906142306 81 153 0.9 4.3 0.00 0.00 0.00 70 1012.3
20260906140804 79 147 2.6 4.3 0.00 0.00 0.00 75 1012.4
20260906135804 78 140 0.9 2.6 0.00 0.00 0.00 77 1012.3
20260906135306 78 107 0.9 2.6 0.00 0.00 0.00 78 1012.3
20260906134805 77 130 2.6 5.2 0.00 0.00 0.00 78 1012.4
20260906134304 77 147 0.9 2.6 0.00 0.00 0.00 80 1012.3
20260906133805 76 84 1.7 2.6 0.00 0.00 0.00 81 1012.3
20260906133305 76 99 1.7 2.6 0.00 0.00 0.00 82 1012.2
20260906132805 75 110 0.0 0.0 0.00 0.00 0.00 83 1012.2
20260906132306 75 110 0.9 2.6 0.00 0.00 0.00 83 1012.2
20260906131803 74 110 0.0 1.7 0.00 0.00 0.00 83 1012.2
20260906131304 74 110 0.0 1.7 0.00 0.00 0.00 83 1012.2
20260906130805 73 110 0.0 0.9 0.00 0.00 0.00 83 1012.3
20260906130304 73 110 0.0 0.0 0.00 0.00 0.00 83 1012.3
20260906125306 73 110 0.0 0.0 0.00 0.00 0.00 83 1012.1
20260906124804 73 110 0.0 0.0 0.00 0.00 0.00 82 1012.0
20260906124304 72 110 0.0 0.0 0.00 0.00 0.00 82 1011.9
20260906123804 72 110 0.0 0.0 0.00 0.00 0.00 82 1012.0
20260906123304 72 110 0.0 0.0 0.00 0.00 0.00 82 1012.0
20260906122306 72 110 0.0 0.9 0.00 0.00 0.00 82 1011.9
20260906121803 72 110 0.0 0.0 0.00 0.00 0.00 82 1011.8
20260906121304 72 110 0.0 0.9 0.00 0.00 0.00 82 1011.8
20260906120804 72 110 0.0 0.0 0.00 0.00 0.00 82 1011.7
20260906120303 72 110 0.0 0.0 0.00 0.00 0.00 82 1011.7
20260906115804 73 110 0.0 0.0 0.00 0.00 0.00 82 1011.6
20260906115306 73 110 0.0 0.9 0.00 0.00 0.00 82 1011.5
20260906114804 73 110 0.0 0.0 0.00 0.00 0.00 81 1011.4
20260906114305 73 110 0.0 0.0 0.00 0.00 0.00 82 1011.3
20260906113804 73 110 0.0 0.9 0.00 0.00 0.00 81 1011.3
20260906113304 73 110 0.0 0.0 0.00 0.00 0.00 81 1011.3
20260906112804 73 110 0.0 0.0 0.00 0.00 0.00 81 1011.3
20260906111303 73 110 0.0 0.0 0.00 0.00 0.00 82 1010.9
20260906110804 74 110 0.0 0.0 0.00 0.00 0.00 81 1011.0
20260906104804 74 110 0.0 0.0 0.00 0.00 0.00 81 1011.0
20260906104304 74 110 0.0 0.0 0.00 0.00 0.00 81 1011.0
20260906103804 74 110 0.0 0.0 0.00 0.00 0.00 81 1011.0
20260906102804 75 110 0.0 0.0 0.00 0.00 0.00 81 1011.0
20260906102306 75 110 0.0 0.0 0.00 0.00 0.00 82 1011.0
20260906101803 74 110 0.0 0.0 0.00 0.00 0.00 82 1010.9
20260906101304 74 110 0.0 0.0 0.00 0.00 0.00 82 1010.9
20260906100803 74 110 0.0 0.0 0.00 0.00 0.00 81 1010.9
20260906095805 74 110 0.0 0.0 0.00 0.00 0.00 80 1010.7
20260906095306 74 110 0.0 0.0 0.00 0.00 0.00 80 1010.7
20260906094804 74 110 0.0 0.0 0.00 0.00 0.00 80 1010.7
20260906094305 74 110 0.0 0.0 0.00 0.00 0.00 80 1010.7
20260906093804 74 110 0.0 0.0 0.00 0.00 0.00 80 1010.7
20260906093303 74 110 0.0 0.0 0.00 0.00 0.00 80 1010.6
20260906092804 74 110 0.0 0.0 0.00 0.00 0.00 79 1010.4
20260906092306 74 110 0.0 0.0 0.00 0.00 0.00 79 1010.4
20260906091804 75 110 0.0 0.0 0.00 0.00 0.00 79 1010.4
20260906091303 75 110 0.0 0.0 0.00 0.00 0.00 78 1010.4
20260906090804 75 110 0.0 0.0 0.00 0.00 0.00 79 1010.3
20260906090304 75 110 0.0 0.9 0.00 0.00 0.00 79 1010.3
20260906085804 75 110 0.9 1.7 0.00 0.00 0.00 79 1010.1
20260906085306 75 110 0.9 1.7 0.00 0.00 0.00 79 1010.0
20260906084804 75 110 0.0 0.0 0.00 0.00 0.00 79 1010.1
20260906083804 75 110 0.9 0.9 0.00 0.00 0.00 78 1010.1
20260906082306 75 110 0.9 1.7 0.00 0.00 0.00 78 1010.2
20260906081804 75 110 0.9 1.7 0.00 0.00 0.00 79 1010.3
20260906081304 75 110 0.0 0.9 0.00 0.00 0.00 79 1010.4
20260906080803 75 110 0.0 0.0 0.00 0.00 0.00 78 1010.4
20260906080303 75 110 0.0 0.0 0.00 0.00 0.00 78 1010.6
20260906075804 76 110 0.9 1.7 0.00 0.00 0.00 78 1010.6
20260906075306 76 110 1.7 1.7 0.00 0.00 0.00 78 1010.7
20260906074803 76 110 0.0 1.7 0.00 0.00 0.00 78 1010.8
20260906074304 76 110 0.0 1.7 0.00 0.00 0.00 78 1010.8
20260906073804 76 110 0.0 0.0 0.00 0.00 0.00 77 1010.8
20260906073303 76 110 0.0 0.0 0.00 0.00 0.00 77 1010.7
20260906072804 76 110 0.0 0.0 0.00 0.00 0.00 77 1010.7
20260906072306 76 110 0.0 0.0 0.00 0.00 0.00 76 1010.7
20260906071804 77 110 0.0 0.0 0.00 0.00 0.00 76 1010.6
20260906070804 77 110 0.9 0.9 0.00 0.00 0.00 74 1010.5
20260906070304 78 110 0.9 1.7 0.00 0.00 0.00 73 1010.6
20260906065305 79 110 0.0 0.9 0.00 0.00 0.00 71 1010.7
20260906064804 80 110 0.0 0.9 0.00 0.00 0.00 70 1010.8
20260906064304 80 110 0.0 0.0 0.00 0.00 0.00 67 1010.9
20260906063804 81 110 0.0 0.0 0.00 0.00 0.00 66 1010.8
20260906063304 81 110 0.0 0.0 0.00 0.00 0.00 64 1010.9
20260906062804 81 110 0.0 0.0 0.00 0.00 0.00 64 1010.9
20260906061804 82 110 0.0 1.7 0.00 0.00 0.00 62 1011.1
20260906061305 82 110 0.9 0.9 0.00 0.00 0.00 61 1011.0
20260906060803 82 110 0.0 0.9 0.00 0.00 0.00 62 1011.0
20260906060304 82 110 0.0 1.7 0.00 0.00 0.00 62 1011.0
20260906055813 82 110 0.9 1.7 0.00 0.00 0.00 61 1011.1
20260906055313 82 110 0.0 0.0 0.00 0.00 0.00 61 1011.0
20260906054813 82 110 0.0 0.9 0.00 0.00 0.00 60 1011.2
20260906054314 82 110 0.9 1.7 0.00 0.00 0.00 59 1011.2
20260906053813 83 110 0.0 0.9 0.00 0.00 0.00 59 1011.1
20260906052813 83 110 0.0 0.9 0.00 0.00 0.00 59 1011.1
20260906052313 83 110 0.0 0.9 0.00 0.00 0.00 59 1011.1
20260906051813 83 110 0.0 1.7 0.00 0.00 0.00 57 1011.1
20260906051313 83 110 0.9 2.6 0.00 0.00 0.00 57 1011.1
20260906050313 84 125 0.9 1.7 0.00 0.00 0.00 57 1011.0
20260906045813 84 125 0.9 1.7 0.00 0.00 0.00 57 1011.1
20260906045314 84 125 0.0 2.6 0.00 0.00 0.00 56 1011.0
20260906043313 85 140 1.7 5.2 0.00 0.00 0.00 54 1010.9
20260906042813 86 139 2.6 6.1 0.00 0.00 0.00 54 1010.9
20260906042313 86 130 1.7 4.3 0.00 0.00 0.00 54 1010.8
20260906041813 86 117 0.9 4.3 0.00 0.00 0.00 53 1010.8
20260906041313 86 126 1.7 6.1 0.00 0.00 0.00 53 1010.7
20260906040812 86 113 2.6 6.1 0.00 0.00 0.00 53 1010.7
20260906040312 87 111 1.7 4.3 0.00 0.00 0.00 52 1010.8
20260906035813 87 123 4.3 6.1 0.00 0.00 0.00 52 1010.8
20260906035313 87 129 2.6 5.2 0.00 0.00 0.00 52 1010.8
20260906034813 87 120 4.3 6.1 0.00 0.00 0.00 51 1010.9
20260906033812 87 109 2.6 6.1 0.00 0.00 0.00 50 1010.8
20260906033313 88 116 4.3 7.8 0.00 0.00 0.00 49 1010.8
20260906032812 88 134 5.2 7.8 0.00 0.00 0.00 49 1010.8
20260906031313 88 131 5.2 8.7 0.00 0.00 0.00 47 1010.8
20260906030313 89 117 1.7 7.8 0.00 0.00 0.00 46 1010.6
20260906025812 89 162 2.6 5.2 0.00 0.00 0.00 46 1010.6
20260906025313 89 134 4.3 7.0 0.00 0.00 0.00 46 1010.7
20260906024813 89 133 3.5 7.0 0.00 0.00 0.00 45 1010.6
20260906024313 90 151 4.3 8.7 0.00 0.00 0.00 45 1010.5
20260906023312 90 110 4.3 8.7 0.00 0.00 0.00 43 1010.3
20260906022812 91 112 6.1 13.0 0.00 0.00 0.00 42 1010.3
20260906022313 91 104 5.2 13.0 0.00 0.00 0.00 41 1010.2
20260906021812 91 119 5.2 8.7 0.00 0.00 0.00 40 1010.2
20260906021313 91 156 7.8 13.9 0.00 0.00 0.00 40 1010.1
20260906020313 92 115 0.9 2.6 0.00 0.00 0.00 39 1009.8
20260906015313 92 116 2.6 4.3 0.00 0.00 0.00 37 1009.5
20260906014813 92 131 1.7 4.3 0.00 0.00 0.00 37 1009.5
20260906014313 92 133 2.6 6.1 0.00 0.00 0.00 36 1009.4
20260906013813 92 77 2.6 2.6 0.00 0.00 0.00 36 1009.4
20260906013312 93 135 1.7 2.6 0.00 0.00 0.00 36 1009.3
20260906012812 93 97 2.6 4.3 0.00 0.00 0.00 35 1009.2
20260906012313 93 75 0.9 1.7 0.00 0.00 0.00 35 1009.1
20260906011813 93 74 1.7 1.7 0.00 0.00 0.00 34 1009.0
20260906011312 93 74 0.9 1.7 0.00 0.00 0.00 34 1008.9
20260906010813 94 74 0.9 2.6 0.00 0.00 0.00 33 1008.9
20260906010313 94 110 0.9 2.6 0.00 0.00 0.00 33 1008.9
20260906005313 95 111 0.9 2.6 0.00 0.00 0.00 32 1008.9
20260906004313 95 99 3.5 6.1 0.00 0.00 0.00 32 1008.9
20260906003813 96 103 2.6 6.1 0.00 0.00 0.00 32 1008.8
20260906003314 96 78 2.6 8.7 0.00 0.00 0.00 32 1008.8
20260906002813 96 116 1.7 5.2 0.00 0.00 0.00 31 1008.9
20260906001812 97 95 2.6 7.8 0.00 0.00 0.00 30 1008.8
20260906001313 98 130 3.5 7.8 0.00 0.00 0.00 30 1008.7
20260906000812 98 124 5.2 10.4 0.00 0.00 0.00 30 1008.7
20260906000312 98 121 2.6 5.2 0.00 0.00 0.00 30 1008.6
20260905235313 98 146 5.2 7.8 0.00 0.00 0.00 29 1008.6
20260905234812 98 145 4.3 7.8 0.00 0.00 0.00 29 1008.6
20260905234313 98 144 6.1 7.8 0.00 0.00 0.00 29 1008.6
20260905233813 99 144 3.5 7.8 0.00 0.00 0.00 28 1008.5
20260905233313 99 104 5.2 10.4 0.00 0.00 0.00 28 1008.5
20260905231812 99 101 5.2 7.0 0.00 0.00 0.00 28 1008.5
20260905231312 99 154 5.2 8.7 0.00 0.00 0.00 28 1008.5
20260905230313 99 98 5.2 10.4 0.00 0.00 0.00 28 1008.5
20260905225813 100 103 3.5 8.7 0.00 0.00 0.00 27 1008.4
20260905225312 99 133 2.6 5.2 0.00 0.00 0.00 28 1008.5
20260905224812 100 72 3.5 7.0 0.00 0.00 0.00 28 1008.4